GEFSNGP_850_meantemp_024.txt.gz
Temperature
7 8 8 8 8 8 7 7 7 8 8 9 10 10 9 9 9 8 8 8 8 8 8 8 8 8 8 8 8 8 7 7 7 7 6 6 6 6 6 7 7 6 5 5
6 8 9 8 9 9 9 9 8 8 8 10 10 9 9 8 8 8 8 7 7 7 7 7 7 7 7 7 7 6 6 5 5 5 5 5 5 5 6 6 6 5 4 4
7 9 9 9 10 10 9 9 8 8 9 9 9 9 7 7 6 6 7 7 7 6 6 6 6 6 6 6 5 4 4 4 4 4 4 4 4 5 6 5 5 4 3 3
7 7 8 11 10 10 9 9 9 9 9 9 9 8 6 5 5 5 6 6 5 5 4 4 4 4 4 3 3 2 2 2 3 3 3 4 4 5 5 4 3 3 2 2
7 8 9 12 11 9 8 9 10 9 9 9 9 8 6 4 4 4 4 4 4 3 3 3 2 2 2 1 1 1 1 2 2 3 4 4 4 4 3 3 2 2 1 1
7 8 9 11 11 10 9 9 10 9 9 9 8 8 5 3 3 3 3 2 2 2 1 1 0 0 1 0 1 1 2 3 3 3 4 4 3 3 2 2 2 1 0 -0
7 7 9 12 11 10 9 10 10 9 9 8 6 5 3 2 2 1 1 1 1 0 0 -0 0 1 1 1 2 3 3 3 3 3 3 3 3 2 2 1 0 0 -0 -1
8 8 8 13 12 11 10 10 10 9 8 7 5 3 2 2 1 1 0 0 0 0 0 0 1 2 3 3 3 3 3 3 3 2 2 2 2 1 0 0 -0 -1 -1 -2
10 9 11 13 12 12 11 9 8 8 7 6 4 3 2 2 1 1 1 1 1 1 1 1 2 4 5 3 3 3 3 3 2 2 1 1 0 0 -0 -1 -1 -2 -2 -3
10 10 12 13 11 10 9 7 7 6 6 6 5 3 3 2 1 2 1 1 2 2 3 2 3 4 4 3 3 3 2 2 1 1 0 -0 -0 -1 -1 -1 -2 -3 -3 -3
9 10 11 10 9 8 7 6 5 5 6 5 5 3 3 2 1 1 1 2 3 4 4 3 3 3 3 2 2 2 1 1 0 -0 -0 -1 -1 -2 -2 -2 -3 -3 -4 -4
10 11 11 10 9 8 7 6 5 5 4 4 4 3 2 2 1 1 2 3 4 4 4 3 3 2 2 1 1 1 1 0 -0 -1 -1 -1 -2 -2 -3 -3 -4 -4 -5 -6
12 11 11 10 9 8 7 6 5 4 4 3 3 3 3 2 2 2 2 3 3 4 3 3 2 1 1 0 0 0 -0 -1 -1 -1 -1 -2 -2 -3 -3 -4 -5 -5 -6 -7
11 11 10 9 8 7 7 5 5 4 3 3 3 3 3 3 2 2 3 3 3 3 2 2 1 1 0 -0 -0 -1 -1 -1 -1 -2 -2 -3 -3 -4 -4 -5 -5 -6 -7 -8
10 10 9 9 8 7 6 5 4 3 3 3 3 3 3 3 3 3 3 3 2 2 2 1 1 0 -0 -1 -1 -1 -1 -2 -2 -3 -3 -4 -4 -4 -5 -6 -7 -7 -8 -8
9 9 8 7 7 6 6 5 5 4 4 4 3 3 3 4 3 3 2 2 2 2 1 1 0 -0 -1 -1 -1 -1 -2 -2 -3 -3 -4 -4 -5 -5 -6 -7 -7 -8 -9 -9
7 7 7 7 6 6 5 5 5 5 5 5 5 4 4 4 3 2 2 1 1 1 0 -0 -0 -1 -1 -1 -2 -2 -3 -3 -4 -4 -5 -5 -6 -6 -7 -8 -8 -9 -9 -10
6 7 7 7 7 6 5 4 5 5 6 6 5 5 4 4 3 2 1 1 0 -0 -1 -1 -1 -1 -2 -2 -2 -3 -3 -4 -4 -5 -5 -6 -7 -7 -8 -9 -9 -10 -10 -10
5 5 6 6 6 6 5 5 5 6 6 6 5 4 4 3 3 2 1 0 -0 -0 -1 -2 -2 -2 -2 -3 -3 -4 -4 -4 -5 -5 -6 -7 -7 -8 -9 -9 -10 -10 -10 -10
4 4 5 5 5 5 4 5 5 5 6 5 5 4 3 3 2 1 0 -0 -1 -1 -1 -2 -2 -3 -3 -3 -4 -4 -4 -5 -5 -6 -7 -8 -8 -9 -9 -10 -10 -11 -11 -11
3 4 4 5 4 4 4 4 5 5 5 5 5 5 4 2 1 1 0 -0 -1 -2 -2 -2 -3 -3 -3 -4 -4 -4 -5 -5 -6 -7 -8 -8 -9 -9 -10 -10 -11 -11 -11 -11
2 3 3 4 3 3 3 3 4 5 5 4 4 4 3 2 1 -0 -0 -0 -1 -2 -2 -3 -3 -3 -4 -4 -4 -5 -6 -6 -7 -8 -8 -9 -10 -10 -10 -11 -11 -11 -11 -11
1 2 2 2 2 2 2 2 3 4 4 5 4 4 3 2 1 1 -0 -1 -2 -2 -2 -3 -3 -4 -4 -5 -5 -6 -6 -7 -8 -8 -9 -9 -10 -10 -11 -11 -11 -11 -11 -11
1 1 1 1 1 1 1 1 1 2 3 4 3 3 3 2 1 -0 -0 -1 -2 -2 -3 -3 -4 -4 -4 -5 -6 -6 -7 -7 -8 -9 -9 -10 -10 -11 -11 -11 -11 -11 -11 -11
-0 -0 -0 -1 -1 -1 -0 -0 0 1 2 2 2 2 1 1 1 0 -1 -2 -2 -3 -3 -4 -4 -4 -5 -5 -6 -7 -7 -8 -9 -9 -10 -10 -10 -11 -11 -11 -11 -11 -11 -11
-1 -1 -1 -2 -2 -1 -1 -1 -0 1 1 2 2 1 1 0 -0 -1 -1 -2 -3 -3 -4 -4 -4 -5 -5 -6 -7 -7 -8 -8 -9 -9 -10 -10 -10 -11 -11 -11 -11 -11 -10 -10
-1 -2 -2 -3 -3 -2 -2 -1 -0 1 2 2 2 1 0 -1 -1 -1 -2 -3 -3 -4 -4 -4 -5 -5 -6 -7 -7 -8 -8 -9 -9 -9 -10 -10 -10 -10 -10 -10 -10 -10 -10 -10

GEFSNGP_850_meantemp_030.txt.gz
Temperature
5 6 6 6 6 6 6 5 5 6 7 9 9 9 9 8 7 6 6 6 6 7 7 7 7 8 8 9 9 9 9 9 9 9 9 9 8 7 6 5 4 4 3 3
5 6 6 5 6 6 6 7 7 7 8 9 9 9 8 6 5 5 5 5 5 6 6 6 6 6 7 7 7 7 7 7 8 7 7 6 6 5 4 3 3 2 2 2
6 6 6 6 7 7 7 7 8 8 8 9 9 8 6 4 3 3 3 3 4 5 5 5 5 5 5 5 5 5 5 5 5 4 4 4 3 3 2 2 1 1 1 1
6 6 6 8 9 8 8 8 8 8 9 9 8 7 4 3 2 2 2 2 3 3 4 4 4 4 4 4 3 3 3 2 2 2 2 2 2 1 1 1 0 1 1 1
6 6 6 8 9 9 8 8 8 8 8 8 8 6 4 3 2 1 1 1 2 2 2 2 2 2 2 2 2 2 1 1 1 1 1 1 1 1 0 0 0 0 -0 -0
6 7 7 9 10 9 8 8 9 8 8 7 7 6 5 2 1 1 0 1 1 1 1 1 1 1 1 1 1 0 0 0 0 1 1 1 1 0 0 0 -0 -0 -1 -1
6 7 7 8 9 8 8 9 10 9 8 7 6 5 4 2 2 1 0 0 0 0 1 0 -0 0 1 0 0 -0 -0 0 0 1 1 1 0 0 -0 -1 -1 -1 -1 -2
6 7 7 9 8 8 9 10 9 8 8 7 6 4 4 3 2 1 1 0 0 0 0 0 -0 0 0 0 0 0 1 1 1 1 0 0 -0 -1 -1 -1 -1 -1 -2 -2
6 8 9 10 10 11 10 9 8 7 7 7 5 4 4 3 2 2 1 1 1 1 1 1 1 1 1 1 1 1 1 1 0 -0 -0 -1 -1 -1 -1 -2 -2 -2 -2 -2
7 7 8 10 10 10 10 9 8 7 6 6 6 5 4 3 3 2 2 2 2 2 2 2 2 2 2 1 1 1 1 0 -0 -0 -1 -1 -1 -2 -2 -2 -2 -2 -3 -3
7 7 9 10 10 10 10 9 8 7 6 6 5 4 4 3 3 3 2 2 2 3 2 2 2 2 2 1 1 1 0 -0 -1 -1 -1 -1 -2 -2 -2 -2 -2 -3 -3 -4
7 8 8 10 11 10 10 9 7 6 6 5 5 4 3 3 3 3 2 2 2 3 2 2 2 1 1 1 1 1 0 -0 -1 -1 -1 -1 -2 -2 -2 -3 -3 -4 -5 -5
9 9 9 10 10 10 9 8 7 6 6 5 4 4 3 3 2 2 2 2 3 2 2 2 1 1 1 -0 -0 -0 -0 -1 -1 -1 -2 -2 -2 -3 -3 -4 -5 -6 -6 -7
8 8 9 9 9 9 9 8 7 6 5 4 4 3 3 2 2 2 2 2 2 2 2 1 1 0 -0 -1 -1 -1 -1 -1 -2 -2 -2 -3 -3 -4 -4 -5 -5 -6 -7 -7
8 7 8 8 8 8 8 7 6 5 4 3 3 3 2 2 2 2 2 2 2 1 1 1 0 -0 -1 -1 -1 -1 -2 -2 -2 -3 -3 -3 -4 -4 -5 -6 -6 -7 -7 -8
5 6 7 7 7 7 6 6 5 5 4 4 3 2 2 2 2 2 2 2 2 1 1 0 -0 -1 -1 -2 -2 -2 -2 -2 -3 -3 -4 -4 -4 -5 -6 -6 -7 -8 -8 -8
3 4 5 5 6 6 6 6 5 5 4 3 3 3 2 2 2 2 2 1 1 1 0 -0 -0 -1 -2 -2 -2 -2 -2 -3 -3 -4 -4 -4 -5 -6 -6 -7 -8 -8 -9 -9
1 2 3 3 4 5 5 5 5 4 4 4 3 3 3 3 3 2 2 1 0 -0 -1 -1 -1 -1 -2 -2 -2 -2 -3 -3 -3 -4 -4 -5 -6 -7 -7 -8 -8 -9 -9 -10
1 2 3 4 4 5 5 5 4 4 3 3 3 3 3 3 3 2 2 1 0 -0 -1 -1 -2 -2 -2 -2 -2 -3 -3 -3 -4 -4 -5 -6 -7 -7 -8 -9 -9 -9 -10 -10
1 2 2 3 4 4 5 4 4 3 3 3 3 3 3 3 2 2 1 1 0 0 -0 -1 -2 -2 -2 -2 -3 -3 -3 -4 -4 -5 -6 -7 -7 -8 -9 -9 -9 -10 -10 -10
1 2 2 3 4 4 4 4 3 3 3 3 3 3 3 3 2 1 1 0 -0 -1 -1 -1 -2 -2 -3 -3 -3 -3 -4 -4 -5 -6 -7 -7 -8 -9 -9 -9 -10 -10 -10 -10
1 1 2 2 3 3 3 2 2 2 2 2 2 2 2 2 2 1 1 1 -0 -1 -1 -2 -2 -2 -3 -3 -3 -4 -4 -5 -6 -6 -7 -8 -8 -9 -9 -10 -10 -10 -10 -10
1 1 1 2 2 2 2 1 1 1 2 2 3 3 3 3 2 2 1 -0 -1 -1 -1 -2 -2 -3 -3 -3 -4 -4 -5 -6 -6 -7 -8 -8 -9 -9 -10 -10 -10 -10 -10 -10
1 1 1 1 1 1 1 1 0 1 1 1 2 2 2 2 1 1 1 -0 -1 -1 -2 -2 -3 -3 -3 -4 -4 -5 -5 -6 -7 -7 -8 -9 -9 -9 -10 -10 -10 -10 -10 -10
0 0 0 0 -0 -0 -0 -0 -1 -1 -0 -0 0 1 1 1 1 1 0 -0 -1 -2 -2 -3 -3 -3 -4 -4 -5 -5 -6 -6 -7 -8 -8 -9 -9 -9 -10 -10 -10 -10 -10 -9
-0 -0 -1 -1 -1 -1 -2 -2 -1 -1 -1 -1 -1 -0 -0 0 -0 -0 -1 -1 -1 -2 -2 -3 -3 -4 -4 -5 -5 -6 -6 -7 -7 -8 -8 -9 -9 -9 -9 -9 -9 -9 -9 -9
-1 -1 -1 -1 -2 -2 -2 -3 -2 -2 -2 -2 -1 -1 -1 -1 -1 -1 -1 -1 -2 -2 -3 -3 -4 -4 -4 -5 -5 -6 -6 -7 -8 -8 -8 -9 -9 -9 -9 -9 -9 -9 -9 -8

GEFSNGP_850_meantemp_036.txt.gz
Temperature
5 5 5 5 5 4 4 4 3 4 4 6 8 8 8 8 7 5 4 4 3 3 4 4 5 5 5 6 6 6 7 7 8 8 8 7 7 7 7 7 7 7 7 6
4 5 5 4 5 5 5 5 5 5 6 8 8 8 8 7 5 4 3 2 2 2 3 3 4 4 4 5 5 5 6 6 6 6 6 6 6 6 6 5 5 5 4 3
4 6 5 5 5 5 5 5 5 6 7 7 7 7 7 6 4 3 2 1 1 1 1 2 2 3 3 3 3 4 4 4 4 4 4 4 4 4 3 3 2 2 1 1
5 5 5 6 7 6 6 6 6 7 7 8 8 8 7 6 4 3 1 1 1 1 1 1 1 1 1 2 2 2 2 2 2 2 2 2 2 2 1 1 0 0 0 0
5 5 5 7 7 6 6 7 7 7 7 8 8 7 6 5 4 2 1 1 0 0 0 0 0 0 1 1 1 1 1 1 1 1 1 1 0 0 0 -0 -0 -0 -0 0
6 6 6 8 8 8 8 8 9 8 7 7 6 6 6 5 4 2 1 1 0 -0 -0 -0 -0 -0 -0 0 0 0 -0 -0 -0 -0 -0 -0 -0 -0 -0 -0 -0 -0 -0 -0
6 6 6 7 8 8 8 9 9 9 8 7 6 6 6 5 4 3 2 1 1 0 0 0 -0 -0 -0 -0 -0 -1 -0 -0 -0 -0 -0 -0 -0 -0 -0 -0 -0 -0 -0 -1
6 6 6 8 7 7 8 9 9 8 8 7 6 6 6 5 4 3 3 2 2 1 1 1 0 0 0 -0 -0 -0 -0 -0 -0 -0 -0 -0 -0 -0 -0 -0 -1 -1 -1 -2
6 7 8 8 8 10 9 9 9 8 8 7 6 6 5 5 4 4 3 3 3 2 2 2 1 1 1 1 0 0 0 0 0 0 -0 -0 -1 -1 -1 -1 -1 -2 -2 -2
5 5 7 8 9 9 9 9 9 8 8 7 6 6 5 5 5 4 4 4 3 3 3 2 2 1 1 1 1 1 1 0 -0 -0 -0 -1 -1 -1 -2 -2 -2 -2 -3 -3
5 5 7 9 9 9 9 9 9 8 8 7 6 6 5 5 5 4 4 4 3 3 3 2 2 2 1 1 1 1 0 0 -0 -1 -1 -1 -1 -2 -2 -2 -3 -3 -4 -4
5 6 6 7 9 8 8 9 8 8 8 7 6 6 5 5 4 4 4 4 3 3 3 2 2 2 1 1 0 0 0 -0 -1 -1 -1 -2 -2 -2 -3 -3 -3 -4 -4 -5
6 6 6 7 8 8 8 8 8 8 7 7 6 5 5 5 4 4 3 3 3 3 3 2 2 1 1 0 -0 -0 -1 -1 -1 -2 -2 -2 -2 -3 -3 -4 -4 -5 -5 -6
5 5 6 7 6 7 7 7 7 7 7 6 6 5 4 4 4 3 3 3 3 3 2 2 2 1 1 0 -0 -1 -1 -1 -1 -2 -2 -2 -3 -3 -4 -4 -5 -5 -6 -6
5 4 4 5 5 6 6 6 6 6 6 5 5 4 4 4 4 3 3 3 2 2 2 2 1 1 1 0 -0 -1 -1 -1 -2 -2 -2 -3 -3 -4 -4 -4 -5 -6 -6 -7
4 4 4 4 4 4 5 5 5 5 5 5 4 4 3 3 3 2 2 2 2 2 2 2 1 1 0 -0 -1 -1 -1 -2 -2 -2 -3 -3 -4 -4 -5 -5 -6 -7 -7 -8
2 2 2 2 2 3 3 4 4 4 4 4 4 3 3 3 2 2 2 2 2 2 1 1 1 0 -0 -0 -1 -1 -2 -2 -2 -3 -3 -4 -4 -5 -6 -6 -7 -8 -8 -9
0 0 0 0 1 2 3 3 4 4 4 4 3 3 3 3 3 3 2 2 2 1 1 1 0 -0 -0 -1 -1 -2 -2 -2 -3 -3 -4 -4 -5 -6 -7 -7 -8 -8 -9 -9
0 0 0 0 1 1 2 3 4 4 4 4 3 3 3 3 2 2 2 2 2 2 1 0 -0 -1 -1 -1 -2 -2 -2 -3 -3 -4 -5 -5 -6 -7 -7 -8 -8 -9 -9 -9
0 0 0 1 1 2 2 3 4 4 4 3 3 2 2 2 2 2 2 2 2 2 1 0 -0 -1 -1 -2 -2 -2 -3 -3 -4 -4 -5 -6 -6 -7 -8 -8 -9 -9 -9 -10
1 1 1 1 1 2 2 3 3 3 3 3 2 2 2 2 2 2 2 2 2 1 0 -0 -1 -1 -2 -2 -2 -3 -3 -4 -4 -5 -5 -6 -7 -7 -8 -9 -9 -9 -10 -10
1 1 1 1 1 2 2 2 2 2 2 2 1 1 1 1 1 2 2 2 1 1 0 -1 -1 -2 -2 -2 -3 -3 -4 -4 -5 -5 -6 -6 -7 -8 -8 -9 -9 -9 -9 -10
1 0 1 1 1 1 1 1 1 1 1 1 1 1 1 1 1 2 2 1 1 0 -0 -1 -1 -2 -2 -3 -3 -4 -4 -4 -5 -6 -6 -7 -7 -8 -8 -9 -9 -9 -9 -9
0 0 -0 -0 -0 0 0 0 0 -0 -0 -0 0 0 0 0 1 1 1 1 0 -0 -1 -1 -2 -2 -3 -3 -4 -4 -4 -5 -5 -6 -6 -7 -7 -8 -8 -8 -9 -9 -9 -9
-0 -1 -1 -0 -0 -1 -1 -1 -1 -1 -1 -1 -1 -1 -0 -0 0 0 0 0 -0 -1 -1 -2 -2 -3 -3 -3 -4 -4 -5 -5 -5 -6 -7 -7 -8 -8 -8 -8 -8 -9 -9 -8
-1 -1 -1 -2 -2 -2 -2 -2 -2 -2 -2 -1 -1 -1 -1 -1 -0 -0 -1 -1 -1 -1 -2 -2 -2 -3 -3 -4 -4 -4 -5 -5 -6 -6 -7 -7 -7 -8 -8 -8 -8 -8 -8 -8
-2 -2 -2 -2 -2 -2 -2 -2 -2 -2 -2 -2 -2 -2 -2 -2 -2 -1 -2 -2 -2 -2 -2 -2 -3 -3 -3 -4 -4 -5 -5 -5 -6 -6 -7 -7 -7 -8 -8 -8 -8 -8 -8 -8

GEFSNGP_850_meantemp_042.txt.gz
Temperature
7 7 7 7 7 7 7 8 9 10 10 11 12 12 11 10 8 7 5 4 3 2 2 2 3 3 4 4 5 5 5 5 6 6 6 6 6 6 6 6 6 6 6 6
6 7 7 7 7 7 8 8 9 9 9 11 11 10 10 9 8 6 5 3 2 1 1 1 2 3 3 4 4 4 4 4 4 4 4 4 4 4 4 4 4 4 4 3
7 7 7 7 8 8 8 8 9 9 10 11 11 11 10 8 7 5 3 2 1 1 1 1 1 2 2 2 3 3 3 3 3 2 2 2 2 2 3 2 2 2 1 1
7 7 6 10 9 9 8 9 9 9 10 11 10 9 8 6 6 4 3 2 1 1 1 1 1 1 1 2 2 2 2 1 1 1 1 1 1 1 1 1 0 0 -0 -0
7 7 8 10 8 8 8 9 9 9 10 10 9 8 8 6 5 4 4 3 2 1 1 1 1 1 1 1 1 1 1 1 0 0 0 0 -0 -0 -0 -0 -1 -1 -1 -1
7 7 8 10 9 8 9 10 10 9 10 10 8 10 10 6 6 5 4 3 2 2 1 1 1 1 1 1 1 0 0 0 0 0 0 -0 -1 -1 -1 -1 -1 -1 -1 -1
7 7 9 10 8 8 9 10 10 9 9 9 9 9 7 6 5 5 4 4 3 3 2 2 1 1 1 1 1 0 0 0 0 -0 -0 -0 -1 -1 -1 -1 -1 -1 -1 -2
7 7 9 9 8 9 10 9 9 8 8 8 7 7 6 6 5 5 5 4 4 3 3 2 2 1 1 1 1 0 0 0 0 -0 -0 -0 -0 -1 -1 -1 -1 -1 -2 -2
9 9 9 8 9 9 8 8 8 8 8 7 7 6 6 5 5 5 5 4 4 4 3 3 2 2 2 1 1 1 0 0 0 -0 -0 -1 -1 -1 -1 -1 -2 -2 -2 -3
8 9 9 8 8 8 8 8 8 8 8 8 7 7 6 6 5 5 5 4 4 4 3 3 2 2 2 1 1 0 0 0 -0 -0 -0 -1 -1 -1 -1 -2 -2 -2 -3 -3
8 9 8 8 8 8 8 8 8 8 8 8 7 7 6 6 6 5 5 4 4 4 3 3 3 2 2 1 1 1 0 0 -0 -0 -1 -1 -1 -2 -2 -2 -3 -3 -4 -4
9 9 9 9 7 7 7 7 7 7 8 7 7 7 6 6 6 5 5 4 4 4 3 3 3 2 2 1 1 0 0 0 -0 -1 -1 -1 -2 -2 -2 -3 -3 -4 -4 -5
7 6 7 7 7 6 6 7 7 7 7 7 7 6 6 6 5 5 4 4 4 4 3 3 2 2 2 1 1 0 -0 -0 -1 -1 -1 -2 -2 -3 -3 -3 -4 -5 -5 -6
6 6 6 6 6 6 6 6 6 6 6 6 6 6 5 5 5 4 4 4 3 3 3 2 2 2 1 1 1 0 -0 -1 -1 -1 -2 -2 -3 -3 -4 -4 -5 -5 -6 -6
5 5 5 5 5 5 5 5 5 5 5 5 5 5 5 5 4 4 4 3 3 3 2 2 2 2 1 1 0 -0 -0 -1 -1 -1 -2 -2 -3 -3 -4 -4 -5 -6 -6 -7
4 4 4 4 3 3 3 3 3 4 4 5 5 5 4 4 4 3 3 3 2 2 2 2 2 1 1 1 0 -0 -1 -1 -1 -2 -2 -3 -3 -4 -4 -5 -6 -6 -7 -7
3 3 3 3 2 2 2 2 2 3 3 4 4 4 4 3 3 3 2 2 2 2 2 1 1 1 0 0 -0 -1 -1 -1 -2 -2 -2 -3 -3 -4 -5 -5 -6 -6 -7 -7
3 2 2 1 1 1 2 2 2 2 3 3 3 3 3 3 3 3 2 2 1 1 1 1 0 0 -0 -0 -1 -1 -1 -1 -2 -2 -3 -3 -4 -4 -5 -5 -6 -7 -7 -8
2 1 1 1 1 1 1 1 2 2 2 3 3 3 3 3 2 2 1 1 1 1 1 0 -0 -0 -1 -1 -1 -1 -1 -2 -2 -2 -3 -3 -4 -4 -5 -6 -6 -7 -7 -8
1 1 1 1 1 1 1 1 1 2 2 2 3 3 2 2 1 1 1 1 1 1 0 -0 -0 -1 -1 -1 -1 -1 -2 -2 -2 -3 -3 -3 -4 -4 -5 -6 -6 -7 -7 -8
1 1 1 1 1 1 1 1 1 2 2 2 2 2 2 1 1 0 0 0 0 -0 -0 -1 -1 -1 -1 -1 -1 -2 -2 -2 -2 -3 -3 -4 -4 -5 -5 -6 -7 -7 -7 -8
1 1 1 1 1 1 1 1 1 1 1 1 1 1 1 0 0 -0 -0 -0 -0 -0 -1 -1 -1 -1 -1 -2 -2 -2 -2 -2 -3 -3 -3 -4 -4 -5 -6 -6 -7 -7 -7 -8
0 0 0 0 0 0 0 0 0 1 0 0 0 0 0 -0 -0 -1 -1 -1 -1 -1 -1 -1 -1 -1 -2 -2 -2 -2 -2 -3 -3 -3 -4 -4 -5 -5 -6 -6 -7 -7 -7 -8
0 -0 -0 -0 -0 -0 -0 -0 -0 -0 -0 -0 -1 -1 -1 -1 -1 -1 -1 -1 -1 -1 -1 -1 -1 -2 -2 -2 -2 -2 -3 -3 -3 -3 -4 -4 -5 -6 -6 -6 -7 -7 -7 -8
-0 -1 -1 -1 -1 -1 -1 -1 -1 -1 -1 -1 -1 -1 -1 -1 -1 -1 -1 -1 -1 -1 -1 -2 -2 -2 -2 -2 -3 -3 -3 -3 -3 -4 -4 -5 -5 -6 -6 -6 -7 -7 -7 -7
-1 -1 -1 -1 -1 -2 -2 -2 -2 -2 -1 -1 -2 -2 -2 -2 -2 -2 -2 -2 -1 -1 -2 -2 -2 -2 -3 -3 -3 -3 -3 -3 -4 -4 -4 -5 -5 -6 -6 -7 -7 -7 -7 -7
-2 -2 -2 -2 -2 -2 -2 -2 -2 -2 -2 -2 -2 -2 -2 -2 -2 -2 -2 -2 -2 -2 -2 -2 -3 -3 -3 -3 -3 -3 -4 -4 -4 -4 -5 -5 -5 -6 -6 -6 -7 -7 -7 -7

GEFSNGP_850_meantemp_048.txt.gz
Temperature
9 9 9 8 9 9 8 8 8 11 11 12 11 12 12 11 11 10 9 7 6 5 4 4 3 3 3 3 4 4 4 4 4 4 4 4 5 5 5 5 5 4 4 4
7 9 9 8 9 9 8 9 9 10 10 12 12 12 12 11 10 9 8 7 5 4 4 3 3 3 2 3 3 3 3 3 3 3 3 3 3 3 4 3 3 3 3 3
7 9 8 7 8 8 9 9 9 9 10 12 11 11 11 10 10 9 8 6 5 4 3 3 2 2 2 2 2 2 2 2 2 2 2 2 2 2 2 2 2 2 2 1
7 7 6 9 11 10 9 9 10 10 11 12 11 11 10 10 9 8 7 6 5 4 3 3 2 2 1 2 2 2 1 2 2 2 2 1 1 1 1 1 1 1 0 0
7 7 8 10 10 10 9 9 10 10 11 11 11 10 9 9 8 8 7 6 5 4 4 3 2 2 2 2 2 1 1 1 1 1 1 1 1 1 0 0 0 -0 -0 -0
7 7 8 10 10 10 10 9 11 10 10 11 10 8 8 8 8 7 7 6 5 4 4 3 3 2 2 2 2 2 1 1 1 1 1 1 0 0 -0 -0 -1 -1 -1 -1
7 7 8 10 9 9 8 9 10 10 10 10 9 9 8 8 7 7 7 6 5 5 4 4 3 3 2 2 2 2 1 1 1 1 1 0 0 -0 -0 -1 -1 -1 -1 -1
7 7 7 9 9 9 9 10 10 9 9 9 9 8 8 7 7 6 6 6 5 5 5 4 4 3 3 2 2 2 1 1 1 1 1 0 0 -0 -1 -1 -1 -1 -2 -2
8 8 10 10 10 9 10 9 9 9 9 9 8 8 7 7 6 6 6 6 6 5 5 4 4 3 3 2 2 2 1 1 1 1 1 0 -0 -0 -1 -1 -2 -2 -2 -2
9 10 10 10 10 9 9 9 9 8 8 8 8 8 7 7 6 6 6 6 5 5 5 4 4 3 3 2 2 2 1 1 1 1 1 0 -0 -0 -1 -1 -1 -2 -2 -3
8 9 10 10 10 9 9 8 8 8 8 8 7 7 7 6 6 6 6 5 5 5 5 4 4 3 3 2 2 2 1 1 1 1 0 0 -0 -0 -1 -1 -2 -2 -2 -3
8 10 9 9 9 9 8 8 7 7 7 7 7 7 7 6 6 6 6 5 5 5 5 4 4 3 3 2 2 2 1 1 1 1 0 0 -0 -1 -1 -1 -2 -2 -3 -3
9 9 9 8 8 8 7 7 7 7 7 7 6 6 6 6 6 5 5 5 5 5 5 4 4 3 3 2 2 2 1 1 1 0 0 -0 -0 -1 -1 -1 -2 -2 -3 -4
8 8 7 7 7 7 6 6 6 6 6 6 6 6 5 5 5 5 5 5 5 4 4 4 4 3 3 2 2 2 1 1 1 0 -0 -0 -1 -1 -2 -2 -2 -3 -3 -4
7 7 6 6 6 6 5 5 5 5 5 4 4 4 5 5 5 5 4 4 4 4 4 3 3 3 3 2 2 1 1 1 0 0 -0 -1 -1 -2 -2 -2 -3 -3 -4 -5
5 5 5 5 5 4 4 4 4 4 3 3 3 3 4 4 4 4 4 4 4 4 4 3 3 3 2 2 1 1 1 0 0 -0 -1 -1 -1 -2 -2 -2 -3 -4 -4 -5
4 4 4 4 3 3 3 3 3 2 2 2 2 3 3 3 3 3 3 3 3 3 3 3 3 2 2 1 1 1 0 -0 -0 -1 -1 -1 -2 -2 -2 -3 -3 -4 -4 -5
3 3 3 3 3 2 2 2 2 2 2 2 2 2 2 3 3 3 3 2 2 2 2 2 2 2 1 1 1 0 -0 -0 -1 -1 -1 -1 -2 -2 -3 -3 -3 -4 -5 -5
2 2 2 2 2 2 1 1 1 2 2 2 2 2 2 2 2 2 2 2 2 2 2 1 1 1 1 0 -0 -0 -1 -1 -1 -1 -2 -2 -2 -2 -3 -3 -4 -4 -5 -5
1 1 1 2 1 1 1 1 1 1 1 1 1 1 1 1 1 1 1 2 1 1 1 1 1 0 0 -0 -1 -1 -1 -1 -1 -2 -2 -2 -2 -3 -3 -3 -4 -4 -5 -5
0 1 1 1 1 1 1 1 1 1 1 1 1 1 1 1 1 1 1 1 1 0 0 -0 -0 -0 -1 -1 -1 -2 -2 -2 -2 -2 -2 -2 -3 -3 -3 -4 -4 -4 -5 -5
0 1 1 1 1 1 1 0 0 0 0 0 0 0 0 0 0 0 0 -0 -0 -0 -0 -1 -1 -1 -1 -1 -2 -2 -2 -2 -2 -2 -2 -3 -3 -3 -3 -4 -4 -5 -5 -5
0 0 0 0 0 0 -0 -0 -0 -0 -0 -0 -0 -0 -1 -1 -1 -1 -0 -1 -1 -1 -1 -1 -1 -2 -2 -2 -2 -2 -2 -3 -3 -3 -3 -3 -3 -3 -4 -4 -4 -5 -5 -5
0 0 0 -0 -0 -0 -0 -1 -1 -1 -1 -1 -1 -1 -1 -1 -1 -1 -1 -1 -1 -1 -1 -2 -2 -2 -2 -2 -2 -2 -3 -3 -3 -3 -3 -3 -4 -4 -4 -4 -5 -5 -5 -5
-0 -0 -0 -0 -1 -1 -1 -1 -1 -1 -1 -1 -2 -2 -2 -2 -2 -2 -2 -2 -2 -2 -2 -2 -2 -3 -3 -3 -3 -3 -3 -3 -3 -3 -3 -4 -4 -4 -4 -5 -5 -5 -5 -6
-0 -0 -1 -1 -1 -1 -1 -1 -2 -2 -2 -2 -2 -2 -2 -2 -2 -2 -2 -2 -2 -2 -2 -2 -3 -3 -3 -3 -3 -3 -3 -4 -4 -4 -4 -4 -4 -4 -5 -5 -5 -5 -5 -6
-1 -1 -1 -1 -1 -2 -2 -2 -2 -2 -2 -2 -2 -2 -2 -2 -2 -2 -2 -2 -3 -3 -3 -3 -3 -3 -3 -3 -3 -3 -4 -4 -4 -5 -4 -4 -5 -5 -5 -5 -5 -5 -6 -6

GEFSNGP_850_meantemp_054.txt.gz
Temperature
7 7 6 6 7 7 6 6 6 7 8 9 9 9 9 10 10 10 10 9 9 8 8 7 6 5 5 4 4 4 4 4 4 4 4 4 4 4 4 4 4 4 4 4
6 7 7 7 6 6 7 7 7 7 8 9 10 10 10 10 10 10 10 9 9 8 7 6 5 5 4 4 4 4 4 4 4 3 3 3 3 3 3 3 3 3 3 3
5 6 6 5 6 7 6 7 7 7 8 9 9 8 9 10 10 10 10 9 9 8 7 6 5 4 4 3 3 3 3 3 3 3 2 2 2 2 2 2 2 2 2 2
4 5 5 6 7 7 7 7 7 8 8 8 9 10 11 11 11 10 10 9 8 7 6 5 5 4 3 3 3 2 2 2 2 2 1 1 1 1 1 1 1 1 1 1
4 4 5 7 8 7 6 6 7 7 8 9 9 9 9 10 10 10 10 9 8 7 6 5 4 4 3 3 2 2 2 2 1 1 1 1 1 1 0 1 1 1 0 0
5 5 6 7 9 9 8 7 8 8 7 8 8 7 7 10 9 9 9 8 7 7 6 5 4 4 3 3 2 2 2 2 1 1 1 1 1 0 0 0 0 0 -0 -0
5 5 5 7 8 9 7 7 8 8 8 8 8 8 9 9 9 8 8 8 7 6 6 5 4 4 3 3 3 3 2 2 1 1 1 1 0 0 0 0 0 -0 -0 -1
5 5 5 7 8 7 7 8 8 8 9 9 9 9 9 9 8 8 7 7 7 6 6 5 4 4 4 3 3 3 2 2 2 1 1 1 0 0 0 -0 -0 -0 -1 -1
5 6 7 8 8 9 9 9 9 9 9 9 9 9 8 8 8 7 7 6 6 6 5 5 5 4 4 4 3 3 2 2 2 1 1 1 0 0 -0 -0 -0 -1 -1 -1
5 6 7 8 9 9 9 9 9 9 9 9 8 8 8 7 7 7 7 6 6 5 5 5 5 5 4 3 3 3 2 2 2 1 1 1 0 0 -0 -0 -1 -1 -1 -1
5 6 7 8 9 9 9 9 9 8 8 8 8 8 7 7 7 7 6 6 6 6 5 5 5 4 4 4 3 3 2 2 2 1 1 1 0 0 -0 -1 -1 -1 -1 -1
5 7 6 8 9 8 8 8 8 8 8 7 7 7 7 7 6 6 6 6 6 5 5 5 5 4 4 4 3 3 2 2 2 1 1 1 0 0 -0 -1 -1 -1 -1 -2
7 8 8 8 8 8 8 8 7 7 7 7 6 6 6 6 6 6 5 5 5 5 5 5 4 4 4 3 3 3 2 2 2 1 1 1 0 -0 -0 -1 -1 -1 -1 -2
6 6 6 6 7 7 7 7 6 6 6 6 6 6 5 5 5 5 5 5 5 4 4 4 4 4 4 3 3 3 2 2 1 1 1 0 0 -0 -1 -1 -1 -1 -2 -2
5 6 6 6 6 6 6 6 5 5 5 5 5 4 4 4 4 4 4 4 4 4 4 4 4 4 3 3 2 2 2 2 1 1 0 0 -0 -0 -1 -1 -1 -1 -2 -2
4 5 5 5 5 5 5 4 4 4 4 4 4 3 3 3 3 4 4 4 4 4 4 3 3 3 3 2 2 2 1 1 1 0 0 -0 -0 -1 -1 -1 -1 -2 -2 -2
3 3 3 3 3 3 3 3 3 3 3 3 3 3 3 3 3 3 3 3 3 3 3 3 3 2 2 2 1 1 1 1 0 0 -0 -0 -1 -1 -1 -2 -2 -2 -2 -2
2 3 3 3 2 2 2 2 2 2 2 2 2 2 2 2 2 2 2 2 3 3 2 2 2 2 1 1 1 1 1 0 0 -0 -0 -1 -1 -1 -2 -2 -2 -2 -2 -3
1 1 1 1 1 1 1 1 1 1 1 1 1 1 1 1 1 2 2 2 2 2 2 2 1 1 1 1 1 0 0 -0 -1 -1 -1 -1 -2 -2 -2 -2 -2 -3 -3 -3
-0 -0 0 0 0 1 1 1 1 1 1 1 1 1 1 1 1 1 1 1 1 1 1 1 1 1 1 0 -0 -0 -0 -1 -1 -1 -2 -2 -2 -3 -3 -3 -3 -3 -3 -3
-1 -1 -1 -0 -0 -0 -0 0 0 0 0 0 1 0 0 0 0 0 0 0 0 0 0 0 0 0 0 -0 -1 -1 -1 -1 -1 -2 -2 -3 -3 -3 -3 -3 -3 -3 -3 -3
-1 -1 -1 -1 -1 -1 -0 -0 -0 -0 -0 -0 -0 -0 -0 -0 -0 -0 -0 -0 -0 -0 -0 -0 -0 -0 -0 -1 -1 -1 -2 -2 -2 -2 -3 -3 -3 -3 -4 -4 -3 -3 -3 -4
-2 -1 -1 -1 -1 -1 -1 -1 -1 -1 -1 -1 -1 -1 -1 -1 -1 -1 -1 -1 -1 -1 -1 -1 -1 -1 -1 -1 -2 -2 -2 -3 -3 -3 -3 -3 -4 -4 -4 -4 -4 -4 -4 -4
-2 -1 -1 -1 -1 -1 -1 -1 -1 -1 -1 -1 -1 -1 -1 -1 -1 -2 -2 -2 -2 -2 -1 -1 -1 -2 -2 -2 -3 -3 -3 -3 -4 -4 -4 -4 -4 -4 -4 -4 -4 -4 -4 -4
-2 -1 -1 -1 -1 -1 -1 -1 -1 -1 -2 -2 -2 -2 -2 -2 -2 -2 -2 -2 -2 -2 -2 -2 -2 -2 -2 -3 -3 -3 -4 -4 -4 -4 -4 -4 -4 -4 -4 -4 -4 -4 -5 -5
-1 -1 -1 -1 -1 -1 -1 -2 -2 -2 -2 -2 -2 -2 -2 -2 -2 -2 -2 -2 -2 -2 -2 -2 -3 -3 -3 -3 -3 -4 -4 -4 -4 -4 -4 -4 -4 -5 -5 -5 -5 -5 -5 -5
-2 -2 -2 -2 -2 -2 -2 -2 -2 -2 -2 -2 -2 -2 -3 -3 -3 -3 -3 -3 -3 -3 -3 -3 -3 -3 -3 -3 -4 -4 -4 -4 -4 -4 -4 -4 -5 -5 -5 -5 -5 -5 -5 -5

GEFSNGP_850_meantemp_060.txt.gz
Temperature
6 6 6 6 6 6 6 6 6 6 6 7 8 8 9 9 9 9 10 10 10 10 10 9 8 8 7 6 6 5 5 4 4 4 4 4 4 4 4 3 4 4 4 4
5 6 6 5 5 5 6 6 6 6 7 7 8 9 9 9 9 9 10 11 11 10 10 9 8 8 7 6 5 4 4 3 3 3 3 3 2 2 2 2 3 3 3 3
5 5 6 5 5 5 5 5 6 6 8 8 7 7 9 10 10 10 11 11 11 10 10 9 8 7 6 5 4 4 3 3 2 2 2 2 1 1 1 1 2 2 2 2
4 5 4 6 7 6 5 6 5 6 6 7 7 9 10 10 10 11 11 11 11 10 10 9 8 6 5 4 4 3 2 2 2 1 1 1 0 1 1 1 1 1 1 1
4 4 4 5 6 6 5 5 6 6 6 7 8 7 8 10 10 11 11 11 10 10 9 8 7 6 5 4 3 3 2 2 1 1 1 0 0 0 0 1 1 1 1 1
4 5 5 6 7 7 6 6 7 6 5 6 6 5 7 9 10 10 10 10 10 9 8 7 6 6 5 4 3 3 2 2 1 1 1 1 1 0 0 1 1 0 0 0
4 4 4 5 6 7 6 7 7 7 6 6 5 7 8 9 9 9 9 9 9 8 8 7 6 5 5 4 4 3 2 2 1 1 1 1 1 1 1 0 0 0 0 0
4 4 5 6 6 6 6 7 7 7 7 7 7 8 8 9 9 9 9 8 8 7 7 6 6 5 5 4 3 3 3 2 2 1 1 1 1 1 0 0 0 0 0 -0
4 5 6 7 7 8 7 7 8 8 8 8 8 8 8 8 8 8 8 7 7 7 6 6 5 5 5 4 3 3 3 2 2 2 1 1 1 1 0 0 0 0 0 -0
3 4 5 7 7 7 7 7 8 8 8 8 8 8 8 8 7 7 7 7 7 6 6 6 5 5 4 4 3 3 3 3 2 2 2 1 1 1 0 0 0 0 0 -0
3 4 5 7 7 7 7 7 7 8 8 8 7 7 7 7 7 7 6 6 6 6 6 5 5 5 4 4 3 3 3 3 2 2 2 1 1 1 1 0 0 -0 -0 -0
4 4 4 5 6 6 6 7 7 7 7 7 7 7 7 7 6 6 6 6 6 6 5 5 5 5 4 4 3 3 3 3 2 2 2 1 1 1 1 0 0 -0 -0 -0
3 4 4 5 5 5 6 6 6 6 6 6 6 6 6 6 6 6 5 5 5 5 5 5 5 4 4 4 3 3 3 3 2 2 2 1 1 1 1 0 0 -0 -0 -0
3 3 3 4 4 4 5 5 5 5 5 5 5 5 5 5 5 5 5 5 4 4 4 4 4 4 4 3 3 3 3 2 2 2 1 1 1 1 0 0 0 -0 -0 -1
2 2 2 3 3 4 4 4 4 4 4 4 4 4 4 4 4 4 4 4 4 4 4 4 4 4 3 3 3 3 2 2 2 1 1 1 0 0 -0 -0 -0 -0 -1 -1
1 1 2 2 2 3 3 3 3 3 3 3 3 3 3 3 3 3 3 3 3 3 3 3 3 3 2 2 2 2 2 2 1 1 1 0 0 0 -0 -0 -0 -0 -1 -1
-0 0 1 1 1 2 2 2 2 2 2 2 2 2 2 2 2 2 2 2 2 2 2 2 2 2 2 2 2 2 1 1 1 1 1 0 0 -0 -0 -0 -1 -1 -1 -2
-1 -0 -0 0 0 1 1 1 1 1 1 1 1 1 1 2 2 2 2 2 2 1 1 1 2 1 1 1 1 1 1 1 0 0 0 0 0 -0 -1 -1 -1 -1 -2 -2
-1 -1 -1 -0 -0 -0 0 0 0 0 0 1 1 1 1 1 1 1 1 1 1 1 1 1 1 1 1 1 1 0 0 0 -0 -0 -0 -0 -1 -1 -1 -1 -1 -1 -2 -2
-2 -2 -1 -1 -1 -1 -1 -1 -1 -1 -0 -0 -0 -0 0 0 0 0 0 0 0 0 0 0 0 0 0 0 0 0 -0 -0 -0 -1 -1 -1 -1 -1 -1 -2 -2 -2 -2 -3
-2 -2 -2 -2 -2 -2 -2 -2 -1 -1 -1 -1 -1 -1 -1 -0 -0 -0 -0 -0 -1 -1 -1 -1 -1 -0 -0 -0 -0 -0 -1 -1 -1 -1 -1 -1 -2 -2 -2 -2 -2 -2 -3 -3
-2 -2 -2 -2 -2 -2 -2 -2 -2 -1 -1 -1 -1 -1 -1 -1 -1 -1 -1 -1 -1 -1 -1 -1 -1 -1 -1 -1 -1 -1 -1 -1 -2 -2 -2 -2 -3 -3 -3 -3 -3 -3 -3 -4
-2 -2 -2 -2 -2 -2 -2 -2 -2 -2 -2 -2 -2 -2 -2 -2 -2 -1 -1 -2 -2 -2 -2 -2 -2 -2 -2 -2 -2 -2 -2 -2 -2 -3 -3 -3 -3 -4 -4 -4 -4 -4 -4 -4
-2 -2 -2 -2 -2 -2 -2 -2 -2 -2 -2 -2 -2 -2 -2 -2 -2 -2 -2 -2 -2 -2 -2 -2 -2 -2 -2 -2 -3 -3 -3 -3 -3 -3 -3 -4 -4 -4 -4 -4 -5 -5 -5 -5
-2 -2 -2 -2 -2 -2 -2 -2 -2 -2 -2 -2 -2 -2 -2 -2 -2 -2 -2 -2 -2 -2 -2 -2 -3 -3 -3 -3 -3 -3 -3 -4 -4 -4 -4 -4 -4 -5 -5 -5 -5 -5 -5 -5
-2 -2 -2 -2 -2 -2 -2 -2 -2 -2 -2 -2 -2 -2 -3 -3 -3 -3 -3 -3 -3 -3 -3 -3 -3 -3 -3 -3 -4 -4 -4 -4 -4 -4 -4 -4 -5 -5 -5 -5 -5 -5 -5 -5
-2 -2 -2 -2 -2 -2 -2 -2 -2 -2 -2 -2 -2 -2 -3 -3 -3 -3 -3 -3 -3 -3 -3 -3 -3 -4 -4 -4 -4 -4 -4 -4 -4 -5 -5 -5 -5 -5 -5 -5 -5 -5 -5 -5